Sigfox identifier Datetime Temperature Humidity SNR
00388BFF 2018-10-09 08:32:46 21 42 20
00388BFF 2018-10-09 07:31:36 21 41 19.9
00388BFF 2018-10-09 06:30:24 21 41 20.1
00388BFF 2018-10-09 05:29:14 21 40 20.5
00388BFF 2018-10-09 01:24:39 21 39 20.6
00388BFF 2018-10-09 00:23:28 21 39 20.6
00388BFF 2018-10-08 23:22:19 21 38 20.9
00388BFF 2018-10-08 22:21:10 21 38 20.7
00388BFF 2018-10-08 21:20:06 21 38 21
00388BFF 2018-10-08 20:19:02 21 38 21.1
00388BFF 2018-10-08 19:17:58 21 37 21.4
00388BFF 2018-10-08 18:16:55 21 37 21.5
00388BFF 2018-10-08 17:15:50 21 37 21.4
00388BFF 2018-10-08 16:14:45 21 37 21.5
00388BFF 2018-10-08 15:13:37 20.9 36 21.6
00388BFF 2018-10-08 14:12:29 20.8 36 21.6
00388BFF 2018-10-08 13:11:21 20.8 36 21.6
00388BFF 2018-10-08 12:10:08 20.6 35 21.7
00388BFF 2018-10-08 11:08:57 20.5 35 21.6
00388BFF 2018-10-08 10:07:52 20.4 35 21.6
00388BFF 2018-10-08 09:06:39 20.4 35 21.7
00388BFF 2018-10-08 08:05:30 20.4 35 21.5
00388BFF 2018-10-08 07:04:21 20.4 36 21.7
00388BFF 2018-10-08 06:03:20 20.4 36 21.7
00388BFF 2018-10-08 05:02:14 20.4 36 21.8
00388BFF 2018-10-08 04:01:12 20.4 37 21.6
00388BFF 2018-10-08 03:00:08 20.5 37 21.5
00388BFF 2018-10-08 01:59:03 20.6 37 21.2
00388BFF 2018-10-08 00:57:56 20.6 37 21.1
00388BFF 2018-10-07 23:56:48 20.6 38 20.9
00388BFF 2018-10-07 22:55:42 20.6 38 21.3
00388BFF 2018-10-07 21:54:34 20.6 38 21
00388BFF 2018-10-07 20:53:25 20.6 38 21.4
00388BFF 2018-10-07 19:52:15 20.6 38 21.6
00388BFF 2018-10-07 18:51:08 20.6 38 21.5
00388BFF 2018-10-07 17:49:59 20.6 38 21.1
00388BFF 2018-10-07 16:48:50 20.6 38 21.5
00388BFF 2018-10-07 15:47:41 20.6 38 21.5
00388BFF 2018-10-07 14:46:32 20.6 38 21.5
00388BFF 2018-10-07 13:45:27 20.6 38 21.8
00388BFF 2018-10-07 12:44:24 20.6 39 22.1
00388BFF 2018-10-07 11:43:18 20.6 39 22.2
00388BFF 2018-10-07 10:42:13 20.7 39 22.4
00388BFF 2018-10-07 09:41:08 20.7 39 22.7
00388BFF 2018-10-07 08:40:02 20.7 39 22.7
00388BFF 2018-10-07 07:38:59 20.7 39 22.7
00388BFF 2018-10-07 06:37:56 20.8 39 22.8
00388BFF 2018-10-07 05:36:50 20.8 39 22.9
00388BFF 2018-10-07 04:35:44 20.8 39 22.9
00388BFF 2018-10-07 03:34:41 20.8 39 23
00388BFF 2018-10-07 02:33:40 20.8 39 23.1
00388BFF 2018-10-07 01:32:37 20.8 39 23.2
00388BFF 2018-10-07 00:31:33 20.8 39 23.4
00388BFF 2018-10-06 23:30:28 20.8 39 23.4
00388BFF 2018-10-06 22:29:24 20.9 39 23.7
00388BFF 2018-10-06 21:28:16 20.9 39 23.6
00388BFF 2018-10-06 20:27:10 20.9 39 23.6
00388BFF 2018-10-06 19:26:04 21 40 23.6
00388BFF 2018-10-06 18:24:55 21 40 23.4
00388BFF 2018-10-06 17:23:46 21 40 23.4
00388BFF 2018-10-06 16:22:37 21 40 24.1
00388BFF 2018-10-06 15:21:23 21 40 23.8
00388BFF 2018-10-06 14:20:08 21 40 23.7
00388BFF 2018-10-06 13:18:56 21 40 23.9
00388BFF 2018-10-06 12:17:46 21 40 24.3
00388BFF 2018-10-06 11:16:33 21 40 24.1
00388BFF 2018-10-06 10:15:23 21 40 24.1
00388BFF 2018-10-06 09:14:16 21 40 24
00388BFF 2018-10-06 08:13:09 21 40 23.9
00388BFF 2018-10-06 07:12:04 21 40 23.8
00388BFF 2018-10-06 06:10:57 21.1 41 24
00388BFF 2018-10-06 05:09:51 21.2 41 24
00388BFF 2018-10-06 04:08:44 21.3 41 24
00388BFF 2018-10-06 03:07:41 21.3 41 24.1
00388BFF 2018-10-06 02:06:34 21.3 41 24
00388BFF 2018-10-06 01:05:29 21.3 41 23.9
00388BFF 2018-10-06 00:04:24 21.4 42 24.5
00388BFF 2018-10-05 23:03:14 21.5 42 24.4
00388BFF 2018-10-05 22:02:00 21.5 42 24.5
00388BFF 2018-10-05 21:00:48 21.6 42 24.5
00388BFF 2018-10-05 19:59:35 21.7 43 24.6
00388BFF 2018-10-05 18:58:26 21.7 43 24.4
00388BFF 2018-10-05 17:57:20 21.7 43 24.2
00388BFF 2018-10-05 16:56:11 21.7 43 24.1
00388BFF 2018-10-05 15:55:03 21.7 42 24.1
00388BFF 2018-10-05 14:53:54 21.5 41 23.4
00388BFF 2018-10-05 13:52:44 21.4 38 23.4
00388BFF 2018-10-05 12:51:34 21.3 37 23.4
00388BFF 2018-10-05 11:50:22 21.1 36 23.1
00388BFF 2018-10-05 10:49:07 20.9 33 22.1
00388BFF 2018-10-05 09:47:57 20.8 33 22.1
00388BFF 2018-10-05 08:46:48 20.8 32 22.1
00388BFF 2018-10-05 07:45:38 20.7 32 22
00388BFF 2018-10-05 06:44:29 20.7 32 21.7
00388BFF 2018-10-05 05:43:18 20.8 32 21.8
00388BFF 2018-10-05 04:42:07 20.8 32 21.4
00388BFF 2018-10-05 03:41:00 20.8 32 21.1
00388BFF 2018-10-05 02:39:52 20.9 32 20.9
00388BFF 2018-10-05 01:38:44 21 32 20.6
00388BFF 2018-10-05 00:37:36 21 32 20.5
00388BFF 2018-10-04 23:36:27 21 32 20.5
00388BFF 2018-10-04 22:35:17 21.1 32 18.6
00388BFF 2018-10-04 21:34:05 21.1 32 18.2
00388BFF 2018-10-04 20:32:59 21.3 32 17.5
00388BFF 2018-10-04 19:31:50 21.3 32 16.9
00388BFF 2018-10-04 18:30:41 21.5 32 16.4
00388BFF 2018-10-04 17:29:31 21.7 32 16.4
00388BFF 2018-10-04 16:28:26 21.9 34 16.6
00388BFF 2018-10-04 15:27:10 20.9 35 16.5
00388BFF 2018-10-04 13:24:55 20.8 35 17.3
00388BFF 2018-10-04 12:23:47 20.6 36 17.2
00388BFF 2018-10-04 11:22:38 20.6 37 17.1
00388BFF 2018-10-04 10:21:29 20.4 37 17.2
00388BFF 2018-10-04 09:20:23 20.4 38 17.1
00388BFF 2018-10-04 08:19:13 20.4 38 17.1
00388BFF 2018-10-04 07:18:04 20.4 39 17.1
00388BFF 2018-10-04 06:16:55 20.4 39 17
00388BFF 2018-10-04 05:15:48 20.4 39 19.4
00388BFF 2018-10-04 04:14:39 20.4 40 19.4
00388BFF 2018-10-04 03:13:32 20.5 40 19.3
00388BFF 2018-10-04 02:12:22 20.5 40 19.2
00388BFF 2018-10-04 01:11:12 20.6 40 19.2
00388BFF 2018-10-04 00:10:03 20.6 41 19.1
00388BFF 2018-10-03 23:08:51 20.6 41 19
00388BFF 2018-10-03 22:07:35 20.6 41 18.9
00388BFF 2018-10-03 21:06:21 20.8 41 18.7
00388BFF 2018-10-03 20:05:12 20.8 42 18.8
00388BFF 2018-10-03 19:04:02 20.8 42 18.8
00388BFF 2018-10-03 18:02:53 20.8 42 18.9
00388BFF 2018-10-03 17:01:42 20.8 42 18.6
00388BFF 2018-10-03 16:00:33 20.8 42 18.6
00388BFF 2018-10-03 14:59:30 20.8 42 18.8
00388BFF 2018-10-03 13:58:23 20.7 41 18.9
00388BFF 2018-10-03 12:57:15 20.6 41 19.1
00388BFF 2018-10-03 11:56:08 20.6 41 18.6
00388BFF 2018-10-03 08:52:47 20.4 40 18.8
00388BFF 2018-10-03 07:51:39 20.4 41 19
00388BFF 2018-10-03 06:50:24 20.4 41 19.2
00388BFF 2018-10-03 05:49:14 20.4 41 19.5
00388BFF 2018-10-03 04:48:00 20.5 41 19.8
00388BFF 2018-10-03 03:46:48 20.6 41 20.1
00388BFF 2018-10-03 02:45:41 20.6 41 20.4
00388BFF 2018-10-03 01:44:34 20.6 41 13.4
00388BFF 2018-10-03 00:43:31 20.6 41 13.7
00388BFF 2018-10-02 23:42:21 20.6 41 14
00388BFF 2018-10-02 22:41:15 20.7 41 14.2
00388BFF 2018-10-02 21:40:08 20.7 41 14.8
00388BFF 2018-10-02 20:39:00 20.8 41 15.2
00388BFF 2018-10-02 19:37:55 20.8 41 16.1
00388BFF 2018-10-02 18:36:42 20.9 41 16.6
00388BFF 2018-10-02 16:34:18 21 41 17.9
00388BFF 2018-10-02 15:33:03 21.1 41 16.7
00388BFF 2018-10-02 14:31:43 20.8 38 0